TimeEDT,TemperatureF,Dew PointF,Humidity,Sea Level PressureIn,VisibilityMPH,Wind Direction,Wind SpeedMPH,Gust SpeedMPH,PrecipitationIn,Events,Conditions,WindDirDegrees,DateUTC
12:53 AM,60.1,60.1,100,30.03,7.0,Calm,Calm,-,N/A,,Scattered Clouds,0,2012-10-06 04:53:00
1:53 AM,57.9,57.9,100,30.01,5.0,Calm,Calm,-,N/A,,Clear,0,2012-10-06 05:53:00
2:53 AM,57.0,57.0,100,30.00,4.0,Calm,Calm,-,N/A,,Clear,0,2012-10-06 06:53:00
3:53 AM,57.0,57.0,100,29.98,5.0,Calm,Calm,-,N/A,,Clear,0,2012-10-06 07:53:00
4:53 AM,55.9,55.9,100,29.98,5.0,Calm,Calm,-,N/A,,Clear,0,2012-10-06 08:53:00
5:53 AM,55.9,55.9,100,29.99,4.0,Calm,Calm,-,N/A,,Clear,0,2012-10-06 09:53:00
6:53 AM,55.0,55.0,100,30.03,4.0,Calm,Calm,-,N/A,,Clear,0,2012-10-06 10:53:00
7:53 AM,55.9,55.9,100,30.01,4.0,Calm,Calm,-,N/A,,Mostly Cloudy,0,2012-10-06 11:53:00
8:05 AM,55.4,55.4,100,30.02,4.0,Calm,Calm,-,N/A,,Mostly Cloudy,0,2012-10-06 12:05:00
8:25 AM,57.2,57.2,100,30.03,2.5,Calm,Calm,-,N/A,,Mostly Cloudy,0,2012-10-06 12:25:00
8:34 AM,57.2,57.2,100,30.02,4.0,Calm,Calm,-,N/A,,Mostly Cloudy,0,2012-10-06 12:34:00
8:53 AM,59.0,57.9,96,30.02,4.0,Calm,Calm,-,N/A,,Scattered Clouds,0,2012-10-06 12:53:00
9:53 AM,62.6,60.8,94,30.03,5.0,West,3.5,-,N/A,,Clear,280,2012-10-06 13:53:00
10:53 AM,68.0,63.0,84,30.00,6.0,SSE,4.6,-,N/A,,Haze,160,2012-10-06 14:53:00
11:53 AM,72.0,64.0,76,30.01,7.0,SW,4.6,-,N/A,,Mostly Cloudy,220,2012-10-06 15:53:00
12:53 PM,75.9,62.1,62,29.99,10.0,NNW,5.8,-,N/A,,Partly Cloudy,340,2012-10-06 16:53:00
1:53 PM,79.0,64.0,60,29.97,10.0,West,9.2,-,N/A,,Mostly Cloudy,280,2012-10-06 17:53:00
2:53 PM,72.0,62.1,71,29.96,10.0,North,8.1,-,N/A,,Mostly Cloudy,350,2012-10-06 18:53:00
3:53 PM,69.1,61.0,75,29.97,10.0,NNW,8.1,-,N/A,,Overcast,340,2012-10-06 19:53:00
4:53 PM,66.0,57.9,75,29.97,10.0,NNW,13.8,-,N/A,,Overcast,330,2012-10-06 20:53:00
5:53 PM,64.0,57.0,78,29.97,10.0,NNE,9.2,-,N/A,,Mostly Cloudy,20,2012-10-06 21:53:00
6:02 PM,62.6,57.2,82,29.99,10.0,North,11.5,-,N/A,,Mostly Cloudy,10,2012-10-06 22:02:00
6:53 PM,61.0,55.0,81,30.01,10.0,North,9.2,17.3,N/A,,Overcast,360,2012-10-06 22:53:00
7:53 PM,60.1,54.0,80,30.02,10.0,North,8.1,-,N/A,,Overcast,10,2012-10-06 23:53:00
8:53 PM,60.1,54.0,80,30.02,10.0,North,4.6,-,N/A,,Overcast,10,2012-10-07 00:53:00
9:53 PM,59.0,53.1,81,30.06,10.0,North,11.5,-,N/A,,Overcast,10,2012-10-07 01:53:00
10:23 PM,57.2,51.8,82,30.06,10.0,North,3.5,-,N/A,,Scattered Clouds,10,2012-10-07 02:23:00
10:53 PM,57.9,52.0,81,30.04,10.0,North,6.9,-,N/A,,Clear,360,2012-10-07 02:53:00
11:53 PM,57.0,51.1,81,30.03,10.0,NNW,5.8,-,N/A,,Clear,330,2012-10-07 03:53:00